Station Historical Data
Daily Summary for May 25, 2017 Units:  English    Metric   Both
« Previous Day
Next Day »
Daily Weekly Monthly Yearly Custom
  High: Low: Average:
Temperature: 65.6 °F 55.2 °F 58.3 °F
Dew Point: 59.4 °F 52.7 °F 55 °F
Humidity: 93% 63% 89%
Wind Speed: 10.0mph 0.0mph 2.4mph
Wind Gust: 13.0mph - -
Wind- - East
Pressure: 29.60 in 29.43 in -
Precipitation: 1.67 in    
Historical Graphs
 
 
Tabular Data for May 25, 2017
Time Temperature Dew Point Pressure Wind Wind Speed Wind Gust Humidity Rainfall Rate (Hourly)
00:00 65.6 °F 52.7 °F 29.60 in ESE 2.0 mph 6.0 mph 63% 0.00 in
00:05 65.2 °F 52.7 °F 29.59 in South 3.0 mph 7.0 mph 64% 0.00 in
00:10 64.8 °F 53.2 °F 29.60 in East 7.0 mph 8.0 mph 66% 0.00 in
00:15 64.4 °F 53.2 °F 29.60 in SE 3.0 mph 8.0 mph 67% 0.00 in
00:20 64.0 °F 53.6 °F 29.60 in SE 2.0 mph 7.0 mph 69% 0.00 in
00:25 63.6 °F 53.6 °F 29.60 in SE 2.0 mph 8.0 mph 70% 0.01 in
00:30 62.9 °F 53.7 °F 29.60 in SSE 4.0 mph 8.0 mph 72% 0.01 in
00:35 62.4 °F 54.0 °F 29.60 in SE 3.0 mph 7.0 mph 74% 0.01 in
00:40 62.1 °F 54.1 °F 29.60 in SSE 3.0 mph 8.0 mph 75% 0.02 in
00:45 61.8 °F 54.2 °F 29.60 in SE 2.0 mph 8.0 mph 76% 0.02 in
00:50 61.7 °F 54.1 °F 29.59 in SE 2.0 mph 7.0 mph 76% 0.02 in
00:55 61.6 °F 54.3 °F 29.59 in SE 2.0 mph 4.0 mph 77% 0.03 in
01:00 61.3 °F 54.4 °F 29.60 in ESE 2.0 mph 7.0 mph 78% 0.03 in
01:05 60.9 °F 54.0 °F 29.59 in ESE 2.0 mph 7.0 mph 78% 0.03 in
01:10 60.7 °F 53.8 °F 29.59 in ESE 2.0 mph 8.0 mph 78% 0.04 in
01:15 60.5 °F 54.3 °F 29.59 in East 1.0 mph 5.0 mph 80% 0.04 in
01:20 60.2 °F 54.0 °F 29.59 in ENE 2.0 mph 6.0 mph 80% 0.05 in
01:25 60.0 °F 54.2 °F 29.59 in SE 2.0 mph 9.0 mph 81% 0.04 in
01:30 59.9 °F 54.1 °F 29.59 in ESE 5.0 mph 8.0 mph 81% 0.04 in
01:35 59.7 °F 54.2 °F 29.58 in East 3.0 mph 8.0 mph 82% 0.04 in
01:40 59.7 °F 54.2 °F 29.58 in ENE 1.0 mph 8.0 mph 82% 0.04 in
01:45 59.6 °F 54.1 °F 29.58 in East 3.0 mph 8.0 mph 82% 0.04 in
01:50 59.6 °F 54.4 °F 29.58 in East 2.0 mph 7.0 mph 83% 0.04 in
01:55 59.4 °F 54.2 °F 29.58 in ENE 2.0 mph 5.0 mph 83% 0.03 in
02:00 59.3 °F 54.5 °F 29.58 in East 2.0 mph 5.0 mph 84% 0.03 in
02:05 59.2 °F 54.4 °F 29.58 in East 5.0 mph 5.0 mph 84% 0.03 in
02:10 59.2 °F 54.4 °F 29.58 in Calm   7.0 mph 84% 0.02 in
02:15 59.2 °F 54.4 °F 29.58 in ENE 2.0 mph 7.0 mph 84% 0.02 in
02:20 59.1 °F 54.3 °F 29.57 in East 2.0 mph 6.0 mph 84% 0.01 in
02:25 59.1 °F 54.3 °F 29.57 in ENE 2.0 mph 5.0 mph 84% 0.01 in
02:30 59.1 °F 54.3 °F 29.57 in East 1.0 mph 5.0 mph 84% 0.01 in
02:35 59.0 °F 54.5 °F 29.57 in East 3.0 mph 3.0 mph 85% 0.01 in
02:40 59.0 °F 54.2 °F 29.57 in ESE 1.0 mph 6.0 mph 84% 0.00 in
02:45 59.0 °F 54.2 °F 29.57 in East 2.0 mph 6.0 mph 84% 0.00 in
02:50 58.9 °F 54.4 °F 29.57 in ENE 2.0 mph 6.0 mph 85% 0.00 in
02:55 58.7 °F 54.2 °F 29.57 in ENE 2.0 mph 6.0 mph 85% 0.01 in
03:00 58.5 °F 54.3 °F 29.57 in NE 2.0 mph 6.0 mph 86% 0.01 in
03:05 58.4 °F 54.2 °F 29.57 in Calm   5.0 mph 86% 0.01 in
03:10 58.4 °F 54.5 °F 29.57 in East 1.0 mph 3.0 mph 87% 0.01 in
03:15 58.3 °F 54.4 °F 29.57 in East 2.0 mph 4.0 mph 87% 0.03 in
03:20 58.3 °F 54.4 °F 29.57 in ENE 2.0 mph 4.0 mph 87% 0.03 in
03:25 58.2 °F 54.3 °F 29.58 in ENE 2.0 mph 3.0 mph 87% 0.03 in
03:30 58.2 °F 54.7 °F 29.57 in ENE 1.0 mph 5.0 mph 88% 0.03 in
03:35 58.2 °F 54.7 °F 29.57 in East 1.0 mph 6.0 mph 88% 0.03 in
03:40 58.1 °F 54.6 °F 29.57 in East 3.0 mph 5.0 mph 88% 0.05 in
03:45 58.0 °F 54.5 °F 29.57 in East 2.0 mph 3.0 mph 88% 0.05 in
03:50 58.0 °F 54.8 °F 29.57 in East 1.0 mph 3.0 mph 89% 0.05 in
03:55 58.0 °F 54.8 °F 29.57 in East 2.0 mph 5.0 mph 89% 0.06 in
04:00 57.9 °F 54.7 °F 29.58 in East 2.0 mph 7.0 mph 89% 0.09 in
04:05 57.7 °F 54.5 °F 29.57 in ESE 2.0 mph 7.0 mph 89% 0.15 in
04:10 57.6 °F 54.4 °F 29.57 in ESE 2.0 mph 7.0 mph 89% 0.16 in
04:15 57.5 °F 54.6 °F 29.57 in ENE 1.0 mph 6.0 mph 90% 0.15 in
04:20 57.4 °F 54.5 °F 29.57 in East 2.0 mph 7.0 mph 90% 0.16 in
04:25 57.4 °F 54.5 °F 29.57 in ENE 1.0 mph 5.0 mph 90% 0.16 in
04:30 57.3 °F 54.4 °F 29.57 in NE 4.0 mph 5.0 mph 90% 0.16 in
04:35 57.3 °F 54.4 °F 29.57 in ENE 2.0 mph 5.0 mph 90% 0.17 in
04:40 57.2 °F 54.3 °F 29.57 in East 3.0 mph 6.0 mph 90% 0.15 in
04:45 57.2 °F 54.3 °F 29.57 in East 2.0 mph 5.0 mph 90% 0.15 in
04:50 57.1 °F 54.2 °F 29.57 in ENE 2.0 mph 6.0 mph 90% 0.15 in
04:55 57.1 °F 54.2 °F 29.56 in ENE 2.0 mph 6.0 mph 90% 0.13 in
05:00 57.1 °F 54.2 °F 29.56 in ENE 2.0 mph 6.0 mph 90% 0.10 in
05:05 57.0 °F 54.1 °F 29.56 in East 3.0 mph 8.0 mph 90% 0.05 in
05:10 57.0 °F 54.1 °F 29.56 in East 3.0 mph 10.0 mph 90% 0.05 in
05:15 57.0 °F 54.1 °F 29.56 in East 2.0 mph 10.0 mph 90% 0.05 in
05:20 57.0 °F 54.1 °F 29.56 in East 2.0 mph 7.0 mph 90% 0.05 in
05:25 57.0 °F 54.1 °F 29.56 in East 2.0 mph 5.0 mph 90% 0.06 in
05:30 56.9 °F 54.0 °F 29.56 in Calm   2.0 mph 90% 0.06 in
05:35 56.9 °F 54.0 °F 29.56 in ENE 1.0 mph 10.0 mph 90% 0.06 in
05:40 56.8 °F 53.9 °F 29.56 in East 2.0 mph 6.0 mph 90% 0.07 in
05:45 56.8 °F 53.9 °F 29.56 in East 2.0 mph 3.0 mph 90% 0.08 in
05:50 56.8 °F 53.9 °F 29.55 in East 2.0 mph 7.0 mph 90% 0.09 in
05:55 56.7 °F 53.8 °F 29.55 in ENE 2.0 mph 7.0 mph 90% 0.10 in
06:00 56.7 °F 53.8 °F 29.55 in East 2.0 mph 6.0 mph 90% 0.09 in
06:05 56.6 °F 53.7 °F 29.55 in East 3.0 mph 8.0 mph 90% 0.10 in
06:15 56.5 °F 53.9 °F 29.55 in East 3.0 mph 7.0 mph 91% 0.09 in
06:20 56.6 °F 54.0 °F 29.55 in East 3.0 mph 7.0 mph 91% 0.08 in
06:25 56.5 °F 53.9 °F 29.55 in East 3.0 mph 7.0 mph 91% 0.08 in
06:30 56.4 °F 53.8 °F 29.54 in East 3.0 mph 6.0 mph 91% 0.08 in
06:35 56.4 °F 53.8 °F 29.54 in ENE 3.0 mph 6.0 mph 91% 0.07 in
06:40 56.3 °F 53.7 °F 29.54 in ENE 1.0 mph 6.0 mph 91% 0.07 in
06:45 56.4 °F 53.8 °F 29.54 in ESE 3.0 mph 8.0 mph 91% 0.06 in
06:50 56.3 °F 53.7 °F 29.54 in ENE 3.0 mph 8.0 mph 91% 0.06 in
06:55 56.2 °F 53.3 °F 29.54 in ENE 3.0 mph 6.0 mph 90% 0.05 in
07:00 56.2 °F 53.6 °F 29.54 in ENE 2.0 mph 5.0 mph 91% 0.05 in
07:05 56.2 °F 53.6 °F 29.53 in ENE 3.0 mph 5.0 mph 91% 0.05 in
07:10 56.3 °F 53.7 °F 29.53 in ENE 2.0 mph 6.0 mph 91% 0.05 in
07:15 56.4 °F 53.8 °F 29.53 in ENE 2.0 mph 6.0 mph 91% 0.04 in
07:20 56.6 °F 54.0 °F 29.53 in ENE 3.0 mph 7.0 mph 91% 0.05 in
07:25 56.6 °F 54.0 °F 29.53 in ENE 3.0 mph 8.0 mph 91% 0.05 in
07:30 56.6 °F 54.0 °F 29.53 in ENE 3.0 mph 8.0 mph 91% 0.06 in
07:35 56.6 °F 54.0 °F 29.53 in ENE 3.0 mph 8.0 mph 91% 0.07 in
07:40 56.5 °F 53.9 °F 29.53 in ENE 3.0 mph 7.0 mph 91% 0.07 in
07:45 56.4 °F 53.8 °F 29.53 in East 5.0 mph 7.0 mph 91% 0.08 in
07:50 56.3 °F 53.7 °F 29.53 in ENE 3.0 mph 8.0 mph 91% 0.07 in
07:55 56.3 °F 53.7 °F 29.53 in ENE 3.0 mph 8.0 mph 91% 0.09 in
08:00 56.2 °F 53.6 °F 29.52 in ENE 2.0 mph 8.0 mph 91% 0.10 in
08:05 56.0 °F 53.4 °F 29.52 in East 2.0 mph 9.0 mph 91% 0.10 in
08:10 56.0 °F 53.4 °F 29.52 in East 2.0 mph 8.0 mph 91% 0.11 in
08:15 56.0 °F 53.4 °F 29.52 in NE 4.0 mph 7.0 mph 91% 0.13 in
08:20 55.9 °F 53.3 °F 29.52 in ENE 3.0 mph 8.0 mph 91% 0.13 in
08:25 55.8 °F 53.2 °F 29.52 in ENE 4.0 mph 9.0 mph 91% 0.14 in
08:30 55.9 °F 53.3 °F 29.52 in ENE 3.0 mph 9.0 mph 91% 0.14 in
08:35 56.0 °F 53.7 °F 29.52 in ENE 3.0 mph 8.0 mph 92% 0.15 in
08:40 56.0 °F 53.7 °F 29.52 in ENE 4.0 mph 9.0 mph 92% 0.15 in
08:45 55.9 °F 53.6 °F 29.52 in ENE 4.0 mph 9.0 mph 92% 0.15 in
08:50 56.0 °F 53.7 °F 29.52 in ENE 3.0 mph 7.0 mph 92% 0.16 in
08:55 56.0 °F 53.7 °F 29.52 in ESE 3.0 mph 10.0 mph 92% 0.16 in
09:00 55.9 °F 53.6 °F 29.53 in East 2.0 mph 6.0 mph 92% 0.17 in
09:05 55.8 °F 53.5 °F 29.53 in East 6.0 mph 8.0 mph 92% 0.19 in
09:10 55.7 °F 53.4 °F 29.53 in ENE 3.0 mph 7.0 mph 92% 0.20 in
09:15 55.7 °F 53.4 °F 29.53 in East 3.0 mph 9.0 mph 92% 0.20 in
09:20 55.6 °F 53.3 °F 29.52 in ENE 4.0 mph 9.0 mph 92% 0.21 in
09:25 55.5 °F 53.2 °F 29.52 in ENE 4.0 mph 9.0 mph 92% 0.21 in
09:30 55.5 °F 53.2 °F 29.52 in ENE 4.0 mph 9.0 mph 92% 0.22 in
09:35 55.4 °F 53.1 °F 29.52 in ENE 4.0 mph 9.0 mph 92% 0.22 in
09:40 55.5 °F 53.2 °F 29.52 in ENE 4.0 mph 9.0 mph 92% 0.23 in
09:45 55.4 °F 53.1 °F 29.52 in East 3.0 mph 9.0 mph 92% 0.23 in
09:50 55.4 °F 53.1 °F 29.52 in East 6.0 mph 13.0 mph 92% 0.23 in
09:55 55.4 °F 53.1 °F 29.51 in ENE 4.0 mph 13.0 mph 92% 0.23 in
10:00 55.4 °F 53.1 °F 29.51 in ENE 5.0 mph 11.0 mph 92% 0.22 in
10:05 55.4 °F 53.1 °F 29.51 in East 7.0 mph 9.0 mph 92% 0.21 in
10:10 55.4 °F 53.1 °F 29.51 in East 3.0 mph 9.0 mph 92% 0.21 in
10:15 55.5 °F 53.2 °F 29.51 in NE 2.0 mph 10.0 mph 92% 0.20 in
10:20 55.5 °F 53.2 °F 29.51 in ENE 4.0 mph 10.0 mph 92% 0.20 in
10:25 55.4 °F 53.1 °F 29.50 in ENE 4.0 mph 9.0 mph 92% 0.20 in
10:30 55.4 °F 53.1 °F 29.51 in ENE 4.0 mph 11.0 mph 92% 0.20 in
10:35 55.3 °F 53.0 °F 29.51 in ENE 3.0 mph 10.0 mph 92% 0.21 in
10:40 55.3 °F 53.0 °F 29.50 in NE 4.0 mph 9.0 mph 92% 0.21 in
10:45 55.3 °F 53.0 °F 29.51 in SE 1.0 mph 9.0 mph 92% 0.22 in
10:50 55.3 °F 53.0 °F 29.51 in East 3.0 mph 9.0 mph 92% 0.24 in
10:55 55.3 °F 53.0 °F 29.51 in East 3.0 mph 9.0 mph 92% 0.25 in
11:00 55.2 °F 52.9 °F 29.51 in East 3.0 mph 7.0 mph 92% 0.28 in
11:05 55.2 °F 52.9 °F 29.51 in East 3.0 mph 7.0 mph 92% 0.29 in
11:10 55.3 °F 53.0 °F 29.50 in East 3.0 mph 6.0 mph 92% 0.29 in
11:15 55.3 °F 53.0 °F 29.50 in ENE 3.0 mph 10.0 mph 92% 0.29 in
11:20 55.3 °F 53.0 °F 29.50 in ENE 3.0 mph 10.0 mph 92% 0.28 in
11:25 55.3 °F 53.0 °F 29.50 in ENE 4.0 mph 9.0 mph 92% 0.27 in
11:30 55.3 °F 53.0 °F 29.50 in NE 6.0 mph 10.0 mph 92% 0.26 in
11:35 55.3 °F 53.0 °F 29.50 in East 3.0 mph 8.0 mph 92% 0.24 in
11:40 55.4 °F 53.1 °F 29.50 in NE 3.0 mph 9.0 mph 92% 0.23 in
11:45 55.4 °F 53.1 °F 29.50 in ENE 4.0 mph 7.0 mph 92% 0.22 in
11:50 55.3 °F 53.0 °F 29.50 in NE 4.0 mph 8.0 mph 92% 0.20 in
11:55 55.3 °F 53.0 °F 29.50 in ENE 3.0 mph 8.0 mph 92% 0.18 in
12:00 55.3 °F 53.0 °F 29.50 in ENE 3.0 mph 7.0 mph 92% 0.16 in
12:05 55.3 °F 53.0 °F 29.50 in ENE 4.0 mph 8.0 mph 92% 0.15 in
12:10 55.4 °F 53.1 °F 29.50 in East 3.0 mph 7.0 mph 92% 0.16 in
12:15 55.5 °F 53.2 °F 29.50 in NE 1.0 mph 6.0 mph 92% 0.16 in
12:20 55.5 °F 53.5 °F 29.50 in ENE 3.0 mph 7.0 mph 93% 0.16 in
12:25 55.6 °F 53.3 °F 29.50 in ENE 3.0 mph 7.0 mph 92% 0.15 in
12:30 55.8 °F 53.8 °F 29.50 in NE 1.0 mph 8.0 mph 93% 0.15 in
12:35 56.0 °F 54.0 °F 29.50 in NE 3.0 mph 6.0 mph 93% 0.14 in
12:40 56.1 °F 53.8 °F 29.49 in NE 4.0 mph 7.0 mph 92% 0.13 in
12:45 56.0 °F 53.7 °F 29.50 in East 3.0 mph 8.0 mph 92% 0.12 in
12:50 56.1 °F 53.8 °F 29.49 in ENE 4.0 mph 9.0 mph 92% 0.11 in
12:55 56.2 °F 53.9 °F 29.49 in ENE 4.0 mph 9.0 mph 92% 0.09 in
13:00 56.4 °F 54.1 °F 29.49 in ENE 4.0 mph 8.0 mph 92% 0.07 in
13:05 56.8 °F 54.5 °F 29.49 in NNE 6.0 mph 9.0 mph 92% 0.05 in
13:10 57.5 °F 55.2 °F 29.49 in NE 3.0 mph 10.0 mph 92% 0.03 in
13:15 58.1 °F 55.5 °F 29.49 in ENE 5.0 mph 10.0 mph 91% 0.02 in
13:20 58.7 °F 56.1 °F 29.49 in ENE 5.0 mph 10.0 mph 91% 0.01 in
13:25 59.2 °F 56.0 °F 29.48 in NE 5.0 mph 10.0 mph 89% 0.01 in
13:30 59.9 °F 57.0 °F 29.48 in ENE 5.0 mph 10.0 mph 90% 0.00 in
13:35 60.4 °F 56.8 °F 29.48 in NE 3.0 mph 7.0 mph 88% 0.00 in
13:40 60.6 °F 56.4 °F 29.48 in ENE 4.0 mph 9.0 mph 86% 0.00 in
13:45 60.2 °F 56.0 °F 29.48 in ESE 2.0 mph 8.0 mph 86% 0.00 in
13:50 59.7 °F 55.5 °F 29.48 in ENE 4.0 mph 8.0 mph 86% 0.00 in
13:55 59.8 °F 55.6 °F 29.48 in East 2.0 mph 9.0 mph 86% 0.00 in
14:00 60.3 °F 56.1 °F 29.48 in ESE 1.0 mph 5.0 mph 86% 0.00 in
14:05 60.2 °F 56.3 °F 29.48 in ENE 3.0 mph 7.0 mph 87% 0.00 in
14:10 60.0 °F 56.1 °F 29.48 in ENE 1.0 mph 6.0 mph 87% 0.00 in
14:15 60.1 °F 56.5 °F 29.48 in ENE 3.0 mph 8.0 mph 88% 0.00 in
14:20 60.3 °F 57.0 °F 29.47 in ENE 3.0 mph 8.0 mph 89% 0.00 in
14:25 60.3 °F 57.0 °F 29.47 in ENE 2.0 mph 6.0 mph 89% 0.00 in
14:30 60.5 °F 57.2 °F 29.47 in ENE 2.0 mph 6.0 mph 89% 0.01 in
14:35 60.0 °F 56.7 °F 29.47 in ENE 3.0 mph 7.0 mph 89% 0.01 in
14:40 59.9 °F 57.0 °F 29.47 in ENE 3.0 mph 7.0 mph 90% 0.01 in
14:45 60.3 °F 57.4 °F 29.47 in ENE 3.0 mph 10.0 mph 90% 0.01 in
14:50 60.3 °F 57.4 °F 29.47 in ENE 3.0 mph 10.0 mph 90% 0.01 in
14:55 60.9 °F 57.9 °F 29.46 in East 2.0 mph 9.0 mph 90% 0.01 in
15:00 61.2 °F 57.9 °F 29.46 in East 7.0 mph 10.0 mph 89% 0.01 in
15:05 61.1 °F 58.1 °F 29.46 in East 8.0 mph 11.0 mph 90% 0.01 in
15:10 61.3 °F 58.0 °F 29.46 in NE 3.0 mph 11.0 mph 89% 0.01 in
15:15 61.3 °F 58.0 °F 29.46 in ENE 3.0 mph 9.0 mph 89% 0.01 in
15:20 61.6 °F 58.3 °F 29.45 in ENE 5.0 mph 9.0 mph 89% 0.01 in
15:25 61.7 °F 58.1 °F 29.45 in ENE 5.0 mph 11.0 mph 88% 0.01 in
15:30 62.0 °F 58.4 °F 29.45 in ENE 5.0 mph 11.0 mph 88% 0.00 in
15:35 62.2 °F 58.3 °F 29.45 in ENE 5.0 mph 12.0 mph 87% 0.00 in
15:40 62.3 °F 58.1 °F 29.45 in ENE 8.0 mph 11.0 mph 86% 0.00 in
15:45 62.3 °F 58.4 °F 29.44 in ENE 4.0 mph 9.0 mph 87% 0.00 in
15:55 61.7 °F 57.8 °F 29.44 in ENE 4.0 mph 9.0 mph 87% 0.00 in
16:00 61.4 °F 57.8 °F 29.44 in NNE 5.0 mph 11.0 mph 88% 0.00 in
16:05 61.1 °F 57.5 °F 29.44 in ENE 10.0 mph 12.0 mph 88% 0.00 in
16:10 61.2 °F 57.6 °F 29.44 in NE 6.0 mph 10.0 mph 88% 0.00 in
16:15 61.1 °F 57.8 °F 29.44 in ENE 4.0 mph 10.0 mph 89% 0.01 in
16:20 60.8 °F 57.5 °F 29.45 in ENE 2.0 mph 8.0 mph 89% 0.08 in
16:25 60.7 °F 57.4 °F 29.45 in NE 1.0 mph 8.0 mph 89% 0.11 in
16:30 60.4 °F 57.5 °F 29.45 in Calm   3.0 mph 90% 0.16 in
16:35 60.3 °F 57.4 °F 29.44 in Calm   2.0 mph 90% 0.19 in
16:40 61.3 °F 59.0 °F 29.44 in NE 2.0 mph 4.0 mph 92% 0.19 in
16:45 61.4 °F 58.7 °F 29.44 in NE 2.0 mph 4.0 mph 91% 0.19 in
16:50 61.6 °F 58.6 °F 29.44 in NE 2.0 mph 5.0 mph 90% 0.19 in
16:55 62.1 °F 59.4 °F 29.44 in ENE 1.0 mph 5.0 mph 91% 0.19 in
17:00 61.9 °F 58.9 °F 29.44 in ENE 1.0 mph 4.0 mph 90% 0.19 in
17:05 62.0 °F 58.7 °F 29.44 in NE 2.0 mph 4.0 mph 89% 0.19 in
17:10 61.9 °F 58.6 °F 29.44 in NE 4.0 mph 5.0 mph 89% 0.19 in
17:15 61.7 °F 57.8 °F 29.44 in NE 2.0 mph 5.0 mph 87% 0.18 in
17:20 62.1 °F 58.5 °F 29.44 in ENE 2.0 mph 2.0 mph 88% 0.11 in
17:25 62.4 °F 58.5 °F 29.44 in NE 1.0 mph 5.0 mph 87% 0.08 in
17:30 62.8 °F 59.2 °F 29.44 in NE 2.0 mph 3.0 mph 88% 0.03 in
17:35 62.9 °F 59.3 °F 29.43 in Calm   3.0 mph 88% 0.00 in
17:40 63.1 °F 59.2 °F 29.44 in Calm   4.0 mph 87% 0.00 in
17:45 63.1 °F 59.2 °F 29.44 in NE 5.0 mph 7.0 mph 87% 0.00 in
17:50 62.8 °F 58.9 °F 29.44 in ENE 2.0 mph 7.0 mph 87% 0.00 in
17:55 62.6 °F 58.7 °F 29.44 in ENE 3.0 mph 7.0 mph 87% 0.00 in
18:00 62.5 °F 58.6 °F 29.44 in ENE 2.0 mph 7.0 mph 87% 0.00 in
18:05 62.3 °F 58.7 °F 29.44 in Calm   2.0 mph 88% 0.00 in
18:10 61.2 °F 56.7 °F 29.44 in Calm   9.0 mph 85% 0.03 in
18:15 60.2 °F 56.0 °F 29.44 in Calm   4.0 mph 86% 0.04 in
18:20 60.0 °F 56.4 °F 29.44 in SSW 1.0 mph 4.0 mph 88% 0.04 in
18:25 60.3 °F 57.0 °F 29.44 in SSW 1.0 mph 3.0 mph 89% 0.04 in
18:30 60.6 °F 57.7 °F 29.45 in Calm   2.0 mph 90% 0.04 in
18:35 60.3 °F 57.0 °F 29.45 in NE 7.0 mph 7.0 mph 89% 0.04 in
18:40 59.6 °F 56.4 °F 29.45 in ENE 4.0 mph 9.0 mph 89% 0.04 in
18:45 59.2 °F 56.0 °F 29.45 in ENE 2.0 mph 8.0 mph 89% 0.04 in
18:50 59.0 °F 56.1 °F 29.46 in ENE 3.0 mph 8.0 mph 90% 0.04 in
18:55 58.9 °F 56.0 °F 29.46 in NE 2.0 mph 5.0 mph 90% 0.04 in
19:00 58.5 °F 55.9 °F 29.46 in NNE 2.0 mph 6.0 mph 91% 0.05 in
19:05 58.4 °F 55.8 °F 29.46 in NNE 1.0 mph 3.0 mph 91% 0.05 in
19:10 58.4 °F 55.8 °F 29.46 in ENE 3.0 mph 4.0 mph 91% 0.02 in
19:15 58.2 °F 55.6 °F 29.46 in NE 1.0 mph 5.0 mph 91% 0.01 in
19:20 58.2 °F 55.9 °F 29.46 in ENE 2.0 mph 5.0 mph 92% 0.01 in
19:25 58.0 °F 55.7 °F 29.47 in NE 3.0 mph 6.0 mph 92% 0.01 in
19:30 58.1 °F 55.8 °F 29.47 in NE 2.0 mph 6.0 mph 92% 0.01 in
19:35 58.2 °F 55.9 °F 29.47 in NE 2.0 mph 6.0 mph 92% 0.01 in
19:40 58.0 °F 55.7 °F 29.47 in Calm   5.0 mph 92% 0.01 in
19:45 58.0 °F 55.7 °F 29.47 in NE 2.0 mph 5.0 mph 92% 0.01 in
19:50 57.8 °F 55.5 °F 29.48 in ENE 3.0 mph 6.0 mph 92% 0.01 in
19:55 57.8 °F 55.5 °F 29.48 in ENE 3.0 mph 6.0 mph 92% 0.01 in
20:00 58.0 °F 55.7 °F 29.48 in ENE 2.0 mph 5.0 mph 92% 0.00 in
20:05 58.1 °F 55.8 °F 29.48 in Calm   2.0 mph 92% 0.00 in
20:10 58.3 °F 56.0 °F 29.48 in Calm   3.0 mph 92% 0.00 in
20:15 58.3 °F 56.0 °F 29.49 in Calm   5.0 mph 92% 0.00 in
20:20 58.2 °F 55.9 °F 29.49 in SE 1.0 mph 4.0 mph 92% 0.00 in
20:25 58.1 °F 55.8 °F 29.49 in SE 1.0 mph 4.0 mph 92% 0.00 in
20:30 58.1 °F 55.8 °F 29.49 in Calm   2.0 mph 92% 0.00 in
20:35 58.1 °F 55.8 °F 29.50 in Calm   2.0 mph 92% 0.00 in
20:40 58.1 °F 55.8 °F 29.49 in East 1.0 mph 2.0 mph 92% 0.00 in
20:45 58.1 °F 55.8 °F 29.49 in Calm   2.0 mph 92% 0.00 in
20:50 58.1 °F 55.8 °F 29.50 in Calm     92% 0.00 in
20:55 58.2 °F 55.9 °F 29.50 in Calm     92% 0.00 in
21:00 58.2 °F 55.9 °F 29.50 in Calm     92% 0.00 in
21:05 58.2 °F 55.9 °F 29.50 in Calm     92% 0.00 in
21:10 58.2 °F 55.9 °F 29.50 in Calm     92% 0.00 in
21:15 58.1 °F 55.8 °F 29.50 in Calm     92% 0.00 in
21:20 58.0 °F 55.7 °F 29.50 in Calm     92% 0.00 in
21:25 58.0 °F 55.7 °F 29.51 in Calm     92% 0.00 in
21:30 58.1 °F 55.8 °F 29.51 in Calm     92% 0.00 in
21:35 58.1 °F 56.1 °F 29.51 in Calm     93% 0.00 in
21:40 58.0 °F 56.0 °F 29.51 in Calm     93% 0.00 in
21:45 58.1 °F 56.1 °F 29.51 in Calm     93% 0.00 in
21:50 58.0 °F 56.0 °F 29.51 in Calm     93% 0.00 in
21:55 58.0 °F 56.0 °F 29.51 in Calm     93% 0.00 in
22:00 58.0 °F 56.0 °F 29.51 in Calm   2.0 mph 93% 0.00 in
22:05 57.9 °F 55.9 °F 29.51 in Calm   2.0 mph 93% 0.00 in
22:10 57.8 °F 55.8 °F 29.52 in Calm   2.0 mph 93% 0.00 in
22:15 57.6 °F 55.6 °F 29.52 in WSW 2.0 mph 4.0 mph 93% 0.00 in
22:20 57.4 °F 55.4 °F 29.51 in WSW 1.0 mph 4.0 mph 93% 0.00 in
22:25 57.3 °F 55.0 °F 29.51 in WSW 1.0 mph 4.0 mph 92% 0.00 in
22:30 57.2 °F 54.9 °F 29.51 in Calm     92% 0.00 in
22:35 57.0 °F 54.7 °F 29.51 in Calm     92% 0.00 in
22:40 56.7 °F 54.4 °F 29.51 in Calm     92% 0.00 in
22:45 56.5 °F 54.2 °F 29.51 in Calm     92% 0.00 in
22:50 56.2 °F 53.9 °F 29.51 in Calm     92% 0.00 in
22:55 56.0 °F 54.0 °F 29.51 in Calm   1.0 mph 93% 0.00 in
23:00 55.9 °F 53.9 °F 29.51 in Calm   1.0 mph 93% 0.00 in
23:05 55.7 °F 53.7 °F 29.52 in Calm   3.0 mph 93% 0.00 in
23:10 55.8 °F 53.8 °F 29.52 in SW 1.0 mph 4.0 mph 93% 0.00 in
23:20 56.1 °F 54.1 °F 29.52 in WSW 1.0 mph 5.0 mph 93% 0.00 in
23:25 56.0 °F 54.0 °F 29.52 in WSW 3.0 mph 8.0 mph 93% 0.00 in
23:30 56.0 °F 54.0 °F 29.52 in West 2.0 mph 7.0 mph 93% 0.00 in
23:35 56.0 °F 54.0 °F 29.52 in West 3.0 mph 9.0 mph 93% 0.00 in
23:40 55.8 °F 53.8 °F 29.52 in West 4.0 mph 8.0 mph 93% 0.00 in
23:45 55.7 °F 53.7 °F 29.52 in West 1.0 mph 5.0 mph 93% 0.00 in
23:50 55.6 °F 53.6 °F 29.52 in SW 4.0 mph 4.0 mph 93% 0.00 in
23:55 55.5 °F 53.5 °F 29.52 in WSW 2.0 mph 6.0 mph 93% 0.00 in
Buffalo, New York, USA
Compliments of Weather Underground - 2.5 mb